Regional Weather Roundup
Issued by NWS Sioux Falls, SD

Home | Current Version | Previous Version | Text Only | Print | Product List | Glossary On
Versions: 1 2 3 4 5 6 7 8 9 10 11 12 13 14 15 16 17 18 19 20 21 22 23 24 25 26 27 28 29 30 31 32 33 34 35 36 37 38 39 40 41 42 43 44 45 46 47 48 49 50
000
ASUS43 KFSD 211710
RWRFSD

WEATHER ROUNDUP FOR SE SOUTH DAKOTA/SW MINNESOTA/NW IOWA
NATIONAL WEATHER SERVICE SIOUX FALLS SD
1200 PM CDT THU SEP 21 2017

NOTE: "FAIR" INDICATES FEW OR NO CLOUDS BELOW 12,000 FEET WITH NO
SIGNIFICANT WEATHER AND OR OBSTRUCTIONS TO VISIBILITY.


SDZ038>040-050-052>070-211800-
SOUTHEAST SOUTH DAKOTA

CITY           SKY/WX    TMP DP  RH WIND       PRES   REMARKS
BROOKINGS      SUNNY     76  63  64 SE18G28   29.80F
CHAMBERLAIN    SUNNY     75  61  62 SE17      29.71F
HURON          PTSUNNY   75  57  53 SE15G26   29.74F
MITCHELL       PTSUNNY   75  63  66 S22G31    29.74F
SIOUX FALLS    SUNNY     78  67  68 SE17G26   29.79F
WINNER         FAIR      77  60  55 SE15G21   29.70F
YANKTON        CLOUDY    72  65  78 SE12      29.78F
$$

MNZ071-072-080-081-089-090-097-098-211800-
SOUTHWEST MINNESOTA

CITY           SKY/WX    TMP DP  RH WIND       PRES   REMARKS
FAIRMONT       MOSUNNY   75  66  73 SE14      29.88F
JACKSON        MOSUNNY   72  64  78 CALM      29.89F
LUVERNE        MOSUNNY   75  63  64 SE14G21   29.83F
MARSHALL       SUNNY     77  63  61 S18G24    29.83F
MONTEVIDEO     SUNNY     73  54  49 S13G18    29.86F
PIPESTONE      SUNNY     75  66  73 S16       29.82F
REDWOOD FALLS  SUNNY     75  58  55 SE14      29.86F
TRACY          SUNNY     76  66  69 SE15G22   29.85F
WINDOM         SUNNY     75  64  69 SE13G18   29.87
WORTHINGTON    SUNNY     75  66  73 SE15      29.86F
$$

IAZ001>003-012>014-020>022-031-032-NEZ013-014-SDZ071-211800-
NORTHWEST IOWA

CITY           SKY/WX    TMP DP  RH WIND       PRES   REMARKS
CHEROKEE       SUNNY     81  72  74 SE13      29.83
DENISON        PTSUNNY   81  73  78 SE18G25   29.85
ESTHERVILLE      N/A     75  67  76 SE14      29.88F
LE MARS        MOSUNNY   82  72  69 S14G22    29.80F
ORANGE CITY    SUNNY     81  72  74 S16G23    29.82F
SHELDON        SUNNY     79  68  69 SE12G21   29.82F
SIOUX CITY     PTSUNNY   80  71  74 SE16G23   29.80F
SPENCER        SUNNY     73  66  78 SE15      29.87F
STORM LAKE     SUNNY     81  72  74 S17       29.85F
$$

ABBREVIATIONS USED IN REMARKS
   TC - TEMPERATURE IN CELSIUS
  WCI - WIND CHILL INDEX
   HX - HEAT INDEX
  VSB - VISIBILITY





USA.gov is the U.S. government's official web portal to all federal, state and local government web resources and services.